Weather History for Chipley, FL

Change the Weather History Date:

Thursday, November 22, 2012

  Actual Average (KMAI) Record (KMAI)
Temperature  
Mean Temperature 67 °F 58 °F  
Max Temperature 77 °F 70 °F 82 °F (1997)
Min Temperature 57 °F 47 °F 25 °F (2000)
Degree Days  
Heating Degree Days 0    
Month to date heating degree days  
Since 1 July heating degree days  
Cooling Degree Days 2    
Month to date cooling degree days  
Year to date cooling degree days  
Growing Degree Days 17 (Base 50)    
Moisture  
Dew Point 48 °F    
Average Humidity 53    
Maximum Humidity 72    
Minimum Humidity 34    
Precipitation  
Precipitation 0.00 in 0.15 in 0.76 in (2007)
Month to date precipitation 2.93  
Year to date precipitation 48.48  
Sea Level Pressure  
Sea Level Pressure 30.21 in    
Wind  
Wind Speed 4 mph ()    
Max Wind Speed 7 mph    
Max Gust Speed -    
Visibility 10.0 miles    
Events      
T = Trace of Precipitation, MM = Missing Value Source: Averaged Metar Reports

Daily Weather History Graph

Daily Weather History Graph

Search for Another Location

Airport:

Trip Planner

Search our weather history database for the weather conditions in past years. The results will help you decide how hot, cold, wet, or windy it might be!

Date:

Astronomy

Nov. 22, 2012 Rise Set
Actual Time 6:15 AM CST 4:41 PM CST
Civil Twilight 5:49 AM CST 5:07 PM CST
Nautical Twilight 5:19 AM CST 5:37 PM CST
Astronomical Twilight 4:50 AM CST 6:06 PM CST
Moon 1:09 PM CST (11/22) 12:54 AM CST (11/22)
Length of Visible Light 11h 18m
Length of Day
10h 26m
Waxing Gibbous, 71% of the Moon is Illuminated
Nov 22
Waxing Gibbous
Nov 28
Full
Dec 6
Last Quarter
Dec 13
New
Dec 19
First Quarter

Hourly Weather History & Observations

Time (CST) Temp. Dew Point Humidity Pressure Visibility Wind Dir Wind Speed Gust Speed Precip Events Conditions
12:15 AM 62.6 °F 46.4 °F 55% 30.20 in 10.0 mi NNE 4.6 mph - N/A   Clear
12:35 AM 62.6 °F 46.4 °F 55% 30.20 in 10.0 mi NNE 3.5 mph - N/A   Clear
12:55 AM 62.6 °F 46.4 °F 55% 30.19 in 10.0 mi NNE 6.9 mph - N/A   Clear
1:15 AM 62.6 °F 46.4 °F 55% 30.19 in 10.0 mi NNE 3.5 mph - N/A   Clear
1:35 AM 62.6 °F 46.4 °F 55% 30.18 in 10.0 mi NNE 3.5 mph - N/A   Clear
1:55 AM 62.6 °F 46.4 °F 55% 30.18 in 10.0 mi NNE 3.5 mph - N/A   Clear
2:15 AM 62.6 °F 46.4 °F 55% 30.18 in 10.0 mi NNE 4.6 mph - N/A   Clear
2:35 AM 62.6 °F 46.4 °F 55% 30.18 in 10.0 mi ENE 5.8 mph - N/A   Clear
2:55 AM 62.6 °F 46.4 °F 55% 30.18 in 10.0 mi ENE 6.9 mph - N/A   Clear
3:15 AM 60.8 °F 46.4 °F 59% 30.18 in 10.0 mi NE 5.8 mph - N/A   Clear
3:35 AM 60.8 °F 46.4 °F 59% 30.18 in 10.0 mi NNE 3.5 mph - N/A   Clear
3:55 AM 60.8 °F 46.4 °F 59% 30.18 in 10.0 mi NE 3.5 mph - N/A   Clear
4:15 AM 60.8 °F 46.4 °F 59% 30.19 in 10.0 mi NE 4.6 mph - N/A   Clear
4:35 AM 59.0 °F 46.4 °F 63% 30.19 in 10.0 mi Calm Calm - N/A   Clear
4:55 AM 57.2 °F 46.4 °F 67% 30.20 in 10.0 mi Calm Calm - N/A   Clear
5:15 AM 57.2 °F 48.2 °F 72% 30.20 in 10.0 mi North 5.8 mph - N/A   Clear
5:35 AM 57.2 °F 46.4 °F 67% 30.20 in 10.0 mi NNE 6.9 mph - N/A   Clear
5:55 AM 59.0 °F 46.4 °F 63% 30.20 in 10.0 mi NE 5.8 mph - N/A   Clear
6:15 AM 60.8 °F 46.4 °F 59% 30.20 in 10.0 mi ENE 3.5 mph - N/A   Clear
6:35 AM 59.0 °F 46.4 °F 63% 30.21 in 10.0 mi NE 3.5 mph - N/A   Clear
6:55 AM 60.8 °F 46.4 °F 59% 30.21 in 10.0 mi NE 3.5 mph - N/A   Clear
7:15 AM 59.0 °F 46.4 °F 63% 30.22 in 10.0 mi Calm Calm - N/A   Clear
7:35 AM 59.0 °F 46.4 °F 63% 30.23 in 10.0 mi Calm Calm - N/A   Clear
7:55 AM 60.8 °F 46.4 °F 59% 30.23 in 10.0 mi ENE 4.6 mph - N/A   Clear
8:15 AM 62.6 °F 48.2 °F 59% 30.23 in 10.0 mi ENE 3.5 mph - N/A   Clear
8:35 AM 62.6 °F 48.2 °F 59% 30.24 in 10.0 mi ENE 3.5 mph - N/A   Clear
8:55 AM 64.4 °F 50.0 °F 59% 30.25 in 10.0 mi East 4.6 mph - N/A   Clear
9:15 AM 66.2 °F 50.0 °F 56% 30.25 in 10.0 mi Calm Calm - N/A   Clear
9:35 AM 68.0 °F 51.8 °F 56% 30.26 in 10.0 mi Calm Calm - N/A   Clear
9:55 AM 69.8 °F 51.8 °F 53% 30.26 in 10.0 mi Calm Calm - N/A   Clear
10:15 AM 71.6 °F 51.8 °F 50% 30.26 in 10.0 mi Calm Calm - N/A   Clear
10:35 AM 71.6 °F 51.8 °F 50% 30.26 in 10.0 mi Calm Calm - N/A   Clear
10:55 AM 71.6 °F 50.0 °F 46% 30.25 in 10.0 mi Calm Calm - N/A   Clear
11:15 AM 73.4 °F 46.4 °F 38% 30.25 in 10.0 mi Calm Calm - N/A   Clear
11:35 AM 73.4 °F 46.4 °F 38% 30.24 in 10.0 mi SSW 4.6 mph - N/A   Clear
11:55 AM 73.4 °F 46.4 °F 38% 30.23 in 10.0 mi Calm Calm - N/A   Clear
12:15 PM 75.2 °F 46.4 °F 36% 30.23 in 10.0 mi SSE 4.6 mph - N/A   Clear
12:35 PM 75.2 °F 46.4 °F 36% 30.22 in 10.0 mi South 4.6 mph - N/A   Clear
12:55 PM 75.2 °F 46.4 °F 36% 30.21 in 10.0 mi SSW 3.5 mph - N/A   Clear
1:15 PM 75.2 °F 46.4 °F 36% 30.21 in 10.0 mi SSW 4.6 mph - N/A   Clear
1:35 PM 75.2 °F 46.4 °F 36% 30.20 in 10.0 mi South 6.9 mph - N/A   Clear
1:55 PM 77.0 °F 46.4 °F 34% 30.20 in 10.0 mi SSE 4.6 mph - N/A   Clear
2:15 PM 75.2 °F 46.4 °F 36% 30.19 in 10.0 mi SSW 6.9 mph - N/A   Clear
2:35 PM 75.2 °F 46.4 °F 36% 30.19 in 10.0 mi Calm Calm - N/A   Clear
2:55 PM 73.4 °F 46.4 °F 38% 30.19 in 10.0 mi Calm Calm - N/A   Clear
3:15 PM 73.4 °F 46.4 °F 38% 30.18 in 10.0 mi North 4.6 mph - N/A   Clear
3:35 PM 73.4 °F 46.4 °F 38% 30.18 in 10.0 mi North 5.8 mph - N/A   Clear
3:55 PM 71.6 °F 46.4 °F 41% 30.18 in 10.0 mi North 4.6 mph - N/A   Clear
4:15 PM 71.6 °F 46.4 °F 41% 30.18 in 10.0 mi North 3.5 mph - N/A   Clear
4:35 PM 71.6 °F 46.4 °F 41% 30.19 in 10.0 mi North 5.8 mph - N/A   Clear
4:55 PM 69.8 °F 46.4 °F 43% 30.18 in 10.0 mi North 4.6 mph - N/A   Clear
5:15 PM 69.8 °F 48.2 °F 46% 30.18 in 10.0 mi NE 4.6 mph - N/A   Clear
5:35 PM 69.8 °F 48.2 °F 46% 30.19 in 10.0 mi SSE 4.6 mph - N/A   Clear
5:55 PM 69.8 °F 50.0 °F 49% 30.19 in 10.0 mi South 5.8 mph - N/A   Clear
6:15 PM 69.8 °F 48.2 °F 46% 30.19 in 10.0 mi SSE 4.6 mph - N/A   Clear
6:35 PM 69.8 °F 48.2 °F 46% 30.20 in 10.0 mi South 4.6 mph - N/A   Clear
6:55 PM 68.0 °F 48.2 °F 49% 30.20 in 10.0 mi South 3.5 mph - N/A   Clear
7:15 PM 66.2 °F 48.2 °F 52% 30.21 in 10.0 mi South 4.6 mph - N/A   Clear
7:35 PM 68.0 °F 48.2 °F 49% 30.21 in 10.0 mi South 6.9 mph - N/A   Clear
7:55 PM 66.2 °F 48.2 °F 52% 30.21 in 10.0 mi South 5.8 mph - N/A   Clear
8:15 PM 66.2 °F 50.0 °F 56% 30.22 in 10.0 mi South 5.8 mph - N/A   Clear
8:35 PM 66.2 °F 50.0 °F 56% 30.22 in 10.0 mi SSE 4.6 mph - N/A   Clear
8:55 PM 66.2 °F 51.8 °F 60% 30.22 in 10.0 mi South 5.8 mph - N/A   Clear
9:15 PM 64.4 °F 51.8 °F 64% 30.23 in 10.0 mi South 5.8 mph - N/A   Clear
9:35 PM 64.4 °F 51.8 °F 64% 30.23 in 10.0 mi South 5.8 mph - N/A   Clear
9:55 PM 64.4 °F 51.8 °F 64% 30.23 in 10.0 mi South 3.5 mph - N/A   Clear
10:15 PM 64.4 °F 53.6 °F 68% 30.23 in 10.0 mi South 4.6 mph - N/A   Clear
10:35 PM 64.4 °F 53.6 °F 68% 30.23 in 10.0 mi SSW 4.6 mph - N/A   Clear
10:55 PM 62.6 °F 51.8 °F 68% 30.22 in 10.0 mi South 5.8 mph - N/A   Clear
11:15 PM 62.6 °F 51.8 °F 68% 30.22 in 10.0 mi SSW 4.6 mph - N/A   Clear
11:35 PM 62.6 °F 51.8 °F 68% 30.22 in 10.0 mi South 4.6 mph - N/A   Clear
11:55 PM 62.6 °F 51.8 °F 68% 30.22 in 10.0 mi South 4.6 mph - N/A   Clear